| time (UTC) | temp F | wind direction | speed knots | gust knots | rain 1hr in | rain 24hr in | rain mn in | humidity % | barometer mb |
| 20260906223040 | 83 | 264 | 0.0 | 0.9 | 0.00 | 0.00 | 0.00 | 38 | 1001.0 |
| 20260906221525 | 83 | 318 | 0.0 | 0.9 | 0.00 | 0.00 | 0.00 | 37 | 1001.1 |
| 20260906220020 | 83 | 274 | 0.0 | 0.0 | 0.00 | 0.00 | 0.00 | 37 | 1001.2 |
| 20260906214521 | 84 | 334 | 0.0 | 1.7 | 0.00 | 0.00 | 0.00 | 35 | 1001.3 |
| 20260906213017 | 85 | 316 | 0.0 | 1.7 | 0.00 | 0.00 | 0.00 | 35 | 1001.4 |
| 20260906211507 | 83 | 311 | 0.0 | 0.0 | 0.00 | 0.00 | 0.00 | 36 | 1001.6 |
| 20260906210001 | 81 | 321 | 0.0 | 0.9 | 0.00 | 0.00 | 0.00 | 39 | 1002.1 |
| 20260906204558 | 82 | 322 | 0.0 | 2.6 | 0.00 | 0.00 | 0.00 | 39 | 1002.2 |
| 20260906203101 | 82 | 349 | 0.0 | 1.7 | 0.00 | 0.00 | 0.00 | 37 | 1002.3 |
| 20260906201559 | 83 | 63 | 0.0 | 0.9 | 0.00 | 0.00 | 0.00 | 37 | 1002.5 |
| 20260906200049 | 85 | 63 | 0.0 | 0.9 | 0.00 | 0.00 | 0.00 | 34 | 1002.4 |
| 20260906194540 | 84 | 357 | 0.0 | 5.2 | 0.00 | 0.00 | 0.00 | 36 | 1002.4 |
| 20260906193058 | 85 | 359 | 0.0 | 3.5 | 0.00 | 0.00 | 0.00 | 38 | 1002.6 |
| 20260906191538 | 85 | 128 | 0.0 | 0.0 | 0.00 | 0.00 | 0.00 | 37 | 1002.9 |
| 20260906190029 | 82 | 68 | 0.0 | 4.3 | 0.00 | 0.00 | 0.00 | 37 | 1003.2 |
| 20260906184522 | 83 | 328 | 0.0 | 2.6 | 0.00 | 0.00 | 0.00 | 36 | 1003.4 |
| 20260906183021 | 82 | 4 | 0.0 | 1.7 | 0.00 | 0.00 | 0.00 | 36 | 1003.7 |
| 20260906181535 | 81 | 34 | 0.0 | 2.6 | 0.00 | 0.00 | 0.00 | 38 | 1004.0 |
| 20260906180019 | 80 | 53 | 0.9 | 4.3 | 0.00 | 0.00 | 0.00 | 37 | 1004.2 |
| 20260906174505 | 79 | 61 | 0.0 | 3.5 | 0.00 | 0.00 | 0.00 | 39 | 1004.4 |
| 20260906173100 | 78 | 1 | 0.9 | 3.5 | 0.00 | 0.00 | 0.00 | 42 | 1004.7 |
| 20260906171607 | 78 | 102 | 0.0 | 3.5 | 0.00 | 0.00 | 0.00 | 44 | 1004.8 |
| 20260906170106 | 77 | 79 | 1.7 | 3.5 | 0.00 | 0.00 | 0.00 | 44 | 1004.9 |
| 20260906164547 | 77 | 130 | 0.0 | 2.6 | 0.00 | 0.00 | 0.00 | 46 | 1005.0 |
| 20260906163044 | 75 | 285 | 0.0 | 1.7 | 0.00 | 0.00 | 0.00 | 47 | 1005.0 |
| 20260906161539 | 74 | 260 | 0.0 | 0.0 | 0.00 | 0.00 | 0.00 | 53 | 1005.0 |
| 20260906160035 | 74 | 143 | 0.0 | 1.7 | 0.00 | 0.00 | 0.00 | 54 | 1004.9 |
| 20260906154538 | 73 | 79 | 0.0 | 1.7 | 0.00 | 0.00 | 0.00 | 57 | 1004.9 |
| 20260906153024 | 72 | 56 | 0.0 | 2.6 | 0.00 | 0.00 | 0.00 | 62 | 1005.0 |
| 20260906151521 | 71 | 145 | 0.0 | 1.7 | 0.00 | 0.00 | 0.00 | 63 | 1005.1 |
| 20260906150016 | 70 | 6 | 0.0 | 0.0 | 0.00 | 0.00 | 0.00 | 67 | 1005.2 |
| 20260906144511 | 68 | 162 | 0.0 | 0.0 | 0.00 | 0.00 | 0.00 | 70 | 1005.4 |
| 20260906143006 | 68 | 131 | 0.0 | 0.9 | 0.00 | 0.00 | 0.00 | 70 | 1005.5 |
| 20260906141502 | 69 | 102 | 0.0 | 0.9 | 0.00 | 0.00 | 0.00 | 67 | 1005.5 |
| 20260906140057 | 69 | 88 | 0.0 | 0.9 | 0.00 | 0.00 | 0.00 | 66 | 1005.4 |
| 20260906134553 | 66 | 341 | 0.0 | 0.0 | 0.00 | 0.00 | 0.00 | 71 | 1005.5 |
| 20260906133104 | 0 | 0.0 | 0.0 | 0.00 | 0.00 | 0.00 | 1005.7 | ||
| 20260906131544 | 0 | 0.0 | 0.0 | 0.00 | 0.00 | 0.00 | 1005.7 | ||
| 20260906130044 | 0 | 0.0 | 0.0 | 0.00 | 0.00 | 0.00 | 1005.7 | ||
| 20260906124539 | 0 | 0.0 | 0.0 | 0.00 | 0.00 | 0.00 | 1005.8 | ||
| 20260906123032 | 0 | 0.0 | 0.0 | 0.00 | 0.00 | 0.00 | 1005.6 | ||
| 20260906121526 | 0 | 0.0 | 0.0 | 0.00 | 0.00 | 0.00 | 1005.8 | ||
| 20260906120022 | 0 | 0.0 | 0.0 | 0.00 | 0.00 | 0.00 | 1005.8 | ||
| 20260906114530 | 0 | 0.0 | 0.0 | 0.00 | 0.00 | 0.00 | 1006.2 | ||
| 20260906113013 | 0 | 0.0 | 0.0 | 0.00 | 0.00 | 0.00 | 1006.6 | ||
| 20260906111509 | 0 | 0.0 | 0.0 | 0.00 | 0.00 | 0.00 | 1006.7 | ||
| 20260906110004 | 0 | 0.0 | 0.0 | 0.00 | 0.00 | 0.00 | 1007.4 | ||
| 20260906104606 | 0 | 0.0 | 0.0 | 0.00 | 0.00 | 0.00 | 1007.6 | ||
| 20260906103058 | 0 | 0.0 | 0.0 | 0.00 | 0.00 | 0.00 | 1007.6 | ||
| 20260906101552 | -90 | 243 | 0.0 | 0.0 | 0.00 | 0.00 | 0.00 | 61 | 1007.7 |
| 20260906100047 | 63 | 240 | 0.0 | 0.0 | 0.00 | 0.00 | 0.00 | 60 | 1007.2 |
| 20260906094559 | 64 | 240 | 0.0 | 0.0 | 0.00 | 0.00 | 0.00 | 59 | 1007.1 |
| 20260906093057 | 65 | 240 | 0.0 | 0.0 | 0.00 | 0.00 | 0.00 | 56 | 1007.1 |
| 20260906091536 | 66 | 240 | 0.0 | 0.0 | 0.00 | 0.00 | 0.00 | 54 | 1007.0 |
| 20260906090034 | 66 | 64 | 0.0 | 0.0 | 0.00 | 0.00 | 0.00 | 52 | 1006.7 |
| 20260906084529 | 68 | 65 | 0.0 | 0.0 | 0.00 | 0.00 | 0.00 | 49 | 1006.6 |
| 20260906083042 | 71 | 220 | 0.0 | 1.7 | 0.00 | 0.00 | 0.00 | 45 | 1006.2 |
| 20260906081533 | 71 | 250 | 0.0 | 1.7 | 0.00 | 0.00 | 0.00 | 44 | 1006.2 |
| 20260906080035 | 70 | 245 | 0.0 | 1.7 | 0.00 | 0.00 | 0.00 | 46 | 1006.3 |
| 20260906074529 | 68 | 242 | 0.0 | 0.0 | 0.00 | 0.00 | 0.00 | 48 | 1006.4 |
| 20260906073026 | 70 | 242 | 0.0 | 0.0 | 0.00 | 0.00 | 0.00 | 46 | 1006.4 |
| 20260906071520 | 70 | 200 | 0.0 | 0.0 | 0.00 | 0.00 | 0.00 | 45 | 1006.3 |
| 20260906070016 | 72 | 248 | 0.0 | 0.0 | 0.00 | 0.00 | 0.00 | 42 | 1006.2 |
| 20260906064513 | 73 | 247 | 0.0 | 0.0 | 0.00 | 0.00 | 0.00 | 41 | 1006.2 |
| 20260906063010 | 75 | 246 | 0.0 | 0.0 | 0.00 | 0.00 | 0.00 | 38 | 1006.1 |
| 20260906061508 | 75 | 251 | 0.0 | 0.9 | 0.00 | 0.00 | 0.00 | 37 | 1006.2 |
| 20260906060004 | 74 | 264 | 0.0 | 1.7 | 0.00 | 0.00 | 0.00 | 38 | 1006.1 |
| 20260906054609 | 75 | 299 | 0.0 | 0.0 | 0.00 | 0.00 | 0.00 | 37 | 1006.4 |
| 20260906053055 | 76 | 281 | 0.0 | 0.0 | 0.00 | 0.00 | 0.00 | 36 | 1006.7 |
| 20260906051601 | 76 | 236 | 0.0 | 0.0 | 0.00 | 0.00 | 0.00 | 36 | 1007.0 |
| 20260906050051 | 76 | 171 | 0.0 | 0.9 | 0.00 | 0.00 | 0.00 | 35 | 1006.4 |
| 20260906044542 | 77 | 240 | 0.0 | 0.0 | 0.00 | 0.00 | 0.00 | 34 | 1006.1 |
| 20260906043037 | 79 | 238 | 0.0 | 3.5 | 0.00 | 0.00 | 0.00 | 32 | 1005.9 |
| 20260906041533 | 79 | 321 | 0.0 | 5.2 | 0.00 | 0.00 | 0.00 | 31 | 1005.7 |
| 20260906040032 | 79 | 309 | 0.9 | 5.2 | 0.00 | 0.00 | 0.00 | 30 | 1005.9 |
| 20260906034526 | 79 | 9 | 0.0 | 2.6 | 0.00 | 0.00 | 0.00 | 30 | 1005.6 |
| 20260906033027 | 79 | 323 | 1.7 | 5.2 | 0.00 | 0.00 | 0.00 | 31 | 1005.0 |
| 20260906031514 | 79 | 226 | 2.6 | 9.6 | 0.00 | 0.00 | 0.00 | 30 | 1004.9 |
| 20260906030011 | 79 | 321 | 2.6 | 7.0 | 0.00 | 0.00 | 0.00 | 32 | 1004.7 |
| 20260906024519 | 79 | 233 | 3.5 | 7.8 | 0.00 | 0.00 | 0.00 | 31 | 1004.3 |
| 20260906023001 | 80 | 277 | 4.3 | 7.8 | 0.00 | 0.00 | 0.00 | 30 | 1004.3 |
| 20260906021556 | 82 | 214 | 1.7 | 6.1 | 0.00 | 0.00 | 0.00 | 28 | 1004.1 |
| 20260906020053 | 82 | 264 | 0.9 | 7.0 | 0.00 | 0.00 | 0.00 | 28 | 1003.8 |
| 20260906014622 | 82 | 304 | 3.5 | 8.7 | 0.00 | 0.00 | 0.00 | 27 | 1004.2 |
| 20260906013048 | 82 | 224 | 3.5 | 7.0 | 0.00 | 0.00 | 0.00 | 28 | 1004.1 |
| 20260906011541 | 82 | 240 | 1.7 | 6.1 | 0.00 | 0.00 | 0.00 | 28 | 1003.9 |
| 20260906010035 | 83 | 274 | 0.9 | 4.3 | 0.00 | 0.00 | 0.00 | 27 | 1003.9 |
| 20260906004530 | 84 | 227 | 1.7 | 4.3 | 0.00 | 0.00 | 0.00 | 26 | 1003.9 |
| 20260906003026 | 84 | 253 | 0.0 | 7.0 | 0.00 | 0.00 | 0.00 | 26 | 1003.9 |
| 20260906001523 | 84 | 294 | 0.9 | 7.8 | 0.00 | 0.00 | 0.00 | 26 | 1004.1 |
| 20260906000017 | 86 | 259 | 0.0 | 3.5 | 0.00 | 0.00 | 0.00 | 24 | 1003.8 |
| 20260905234511 | 87 | 287 | 1.7 | 6.1 | 0.00 | 0.00 | 0.00 | 23 | 1003.8 |
| 20260905233008 | 86 | 250 | 0.0 | 0.9 | 0.00 | 0.00 | 0.00 | 24 | 1003.7 |
| 20260905231503 | 86 | 341 | 0.0 | 0.0 | 0.00 | 0.00 | 0.00 | 26 | 1003.7 |
| 20260905230109 | 87 | 347 | 0.0 | 0.9 | 0.00 | 0.00 | 0.00 | 24 | 1003.4 |
| 20260905224607 | 88 | 331 | 0.0 | 0.0 | 0.00 | 0.00 | 0.00 | 23 | 1003.4 |